Location: Unspecified
(41.1637°N, 24.2901°E)
Time: 22:21:48
(UTC+02:00)

ISS - Pass Details

Date: 14 September 2019
Orbit: 411 x 421 km, 51.6° (Epoch: 19 September)

Event Time Altitude Azimuth Distance (km) Brightness Sun altitude
Exits shadow 04:44:57 21° 301° (WNW) 985 -2.3 -14.9°
Maximum altitude 04:47:01 75° 219° (SW) 433 -3.9 -14.6°
Drops below altitude 10° 04:50:21 10° 133° (SE) 1,486 -0.6 -14.0°
Sets 04:52:26 0° 131° (SE) 2,348 0.5 -13.6°
